TimeEDT,TemperatureF,Dew PointF,Humidity,Sea Level PressureIn,VisibilityMPH,Wind Direction,Wind SpeedMPH,Gust SpeedMPH,PrecipitationIn,Events,Conditions,WindDirDegrees,DateUTC
12:56 AM,64.9,51.1,61,30.13,10.0,North,4.6,-,N/A,,Scattered Clouds,10,2013-08-24 04:56:00
1:56 AM,63.0,50.0,63,30.14,10.0,Variable,5.8,-,N/A,,Clear,0,2013-08-24 05:56:00
2:56 AM,62.1,48.9,62,30.16,10.0,North,5.8,-,N/A,,Scattered Clouds,350,2013-08-24 06:56:00
3:56 AM,61.0,48.0,62,30.18,10.0,North,5.8,-,N/A,,Clear,360,2013-08-24 07:56:00
4:56 AM,60.1,48.0,64,30.19,10.0,NNE,8.1,-,N/A,,Clear,20,2013-08-24 08:56:00
5:56 AM,59.0,48.0,67,30.21,10.0,North,6.9,-,N/A,,Clear,360,2013-08-24 09:56:00
6:46 AM,57.2,48.2,72,30.24,10.0,North,6.9,-,N/A,,Partly Cloudy,350,2013-08-24 10:46:00
6:56 AM,59.0,48.0,67,30.24,10.0,North,6.9,-,N/A,,Clear,350,2013-08-24 10:56:00
7:56 AM,62.1,48.9,62,30.26,10.0,North,9.2,-,N/A,,Clear,10,2013-08-24 11:56:00
8:56 AM,66.0,51.1,59,30.27,10.0,NNE,8.1,-,N/A,,Clear,30,2013-08-24 12:56:00
9:56 AM,69.1,51.1,53,30.29,10.0,NNE,10.4,-,N/A,,Clear,30,2013-08-24 13:56:00
10:56 AM,71.1,51.1,49,30.29,10.0,Variable,4.6,-,N/A,,Clear,0,2013-08-24 14:56:00
11:56 AM,73.0,52.0,48,30.29,10.0,Calm,Calm,-,N/A,,Partly Cloudy,0,2013-08-24 15:56:00
12:56 PM,75.0,52.0,44,30.28,10.0,Variable,4.6,-,N/A,,Clear,0,2013-08-24 16:56:00
1:56 PM,73.0,53.1,49,30.29,10.0,South,8.1,-,N/A,,Partly Cloudy,170,2013-08-24 17:56:00
2:56 PM,73.9,53.1,48,30.29,10.0,South,5.8,-,N/A,,Partly Cloudy,170,2013-08-24 18:56:00
3:56 PM,75.9,52.0,43,30.28,10.0,SE,3.5,-,N/A,,Clear,130,2013-08-24 19:56:00
4:56 PM,75.0,53.1,46,30.28,10.0,ESE,6.9,-,N/A,,Partly Cloudy,120,2013-08-24 20:56:00
5:56 PM,73.9,53.1,48,30.29,10.0,SSE,6.9,-,N/A,,Partly Cloudy,150,2013-08-24 21:56:00
6:56 PM,70.0,55.0,59,30.29,10.0,SSE,3.5,-,N/A,,Clear,150,2013-08-24 22:56:00
7:56 PM,64.9,55.9,73,30.31,10.0,Calm,Calm,-,N/A,,Clear,0,2013-08-24 23:56:00
8:56 PM,64.0,57.0,78,30.33,10.0,Calm,Calm,-,N/A,,Clear,0,2013-08-25 00:56:00
9:56 PM,62.1,55.9,80,30.33,10.0,Calm,Calm,-,N/A,,Clear,0,2013-08-25 01:56:00
10:56 PM,62.1,57.0,84,30.34,10.0,Calm,Calm,-,N/A,,Clear,0,2013-08-25 02:56:00
11:56 PM,60.1,55.9,86,30.35,10.0,NW,3.5,-,N/A,,Clear,320,2013-08-25 03:56:00